Tracking 28091 objects as of 30-Sep-2023
HD Live streaming from Space Station
objects crossing your sky now

STARLINK-4751

Track STARLINK-4751 now!
10-day predictions
STARLINK-4751 is classified as:


NORAD ID: 53825
Int'l Code: 2022-114H
Perigee: 545.8 km
Apogee: 547.8 km
Inclination: 53.2 °
Period: 95.4 minutes
Semi major axis: 6917 km
RCS: Unknown
Launch date: September 19, 2022
Source: United States (US)
Launch site: AIR FORCE EASTERN TEST RANGE (AFETR)
Your satellite tracking list
Your tracking list is empty




NASA's NSSDC Master Catalog

Two Line Element Set (TLE):
1 53825U 22114H   23272.72911677  .00008725  00000-0  56536-3 0  9999
2 53825  53.2176 348.4261 0001447 108.6726 251.4423 15.08856313 57635
Source of the keplerian elements: AFSPC